Time,TemperatureF,DewpointF,PressureIn,WindDirection,WindDirectionDegrees,WindSpeedMPH,WindSpeedGustMPH,Humidity,HourlyPrecipIn,Conditions,Clouds,dailyrainin,SoftwareType,DateUTC
2013-07-30 00:00:00,66.8,59.0,30.00,West,275,0.0,1.0,76,0.00,,,0.02,Wunderground v.1.15,2013-07-30 04:00:00,
2013-07-30 00:01:00,66.8,58.6,30.00,West,274,0.0,0.0,75,0.00,,,0.00,Wunderground v.1.15,2013-07-30 04:01:00,
2013-07-30 00:02:00,66.8,59.0,30.00,West,274,0.0,0.0,76,0.00,,,0.00,Wunderground v.1.15,2013-07-30 04:02:00,
2013-07-30 00:03:00,66.8,59.0,30.00,West,274,0.0,0.0,76,0.00,,,0.00,Wunderground v.1.15,2013-07-30 04:03:00,
2013-07-30 00:04:00,66.8,58.6,30.00,West,274,0.0,0.0,75,0.00,,,0.00,Wunderground v.1.15,2013-07-30 04:04:00,
2013-07-30 00:09:00,66.5,58.7,30.00,West,274,0.0,0.0,76,0.00,,,0.00,Wunderground v.1.15,2013-07-30 04:09:00,
2013-07-30 00:14:00,66.3,58.5,30.00,West,274,0.0,0.0,76,0.00,,,0.00,Wunderground v.1.15,2013-07-30 04:14:00,
2013-07-30 00:19:00,66.0,58.6,30.00,West,274,0.0,0.0,77,0.00,,,0.00,Wunderground v.1.15,2013-07-30 04:19:00,
2013-07-30 00:24:00,66.1,59.0,30.00,West,277,0.0,0.0,78,0.00,,,0.00,Wunderground v.1.15,2013-07-30 04:24:00,
2013-07-30 00:29:00,66.2,58.8,30.00,West,277,0.0,0.0,77,0.00,,,0.00,Wunderground v.1.15,2013-07-30 04:29:00,
2013-07-30 00:35:00,66.3,58.5,30.00,West,278,1.0,1.0,76,0.00,,,0.00,Wunderground v.1.15,2013-07-30 04:35:00,
2013-07-30 00:40:00,66.3,58.5,30.00,West,278,0.0,1.0,76,0.00,,,0.00,Wunderground v.1.15,2013-07-30 04:40:00,
2013-07-30 00:45:00,66.3,58.5,30.00,West,279,2.0,2.0,76,0.00,,,0.00,Wunderground v.1.15,2013-07-30 04:45:00,
2013-07-30 00:50:00,66.2,58.4,30.00,West,279,0.0,2.0,76,0.00,,,0.00,Wunderground v.1.15,2013-07-30 04:50:00,
2013-07-30 00:55:00,66.0,58.6,30.00,West,281,0.0,2.0,77,0.00,,,0.00,Wunderground v.1.15,2013-07-30 04:55:00,
2013-07-30 01:00:00,65.9,58.5,30.00,West,281,0.0,2.0,77,0.00,,,0.00,Wunderground v.1.15,2013-07-30 05:00:00,
2013-07-30 01:05:00,65.9,58.5,30.00,WNW,287,0.0,1.0,77,0.00,,,0.00,Wunderground v.1.15,2013-07-30 05:05:00,
2013-07-30 01:11:00,65.8,58.4,30.00,WNW,288,1.0,1.0,77,0.00,,,0.00,Wunderground v.1.15,2013-07-30 05:11:00,
2013-07-30 01:17:00,65.7,58.3,30.00,WNW,288,0.0,1.0,77,0.00,,,0.00,Wunderground v.1.15,2013-07-30 05:17:00,
2013-07-30 01:22:00,65.4,58.4,30.00,WNW,288,0.0,0.0,78,0.00,,,0.00,Wunderground v.1.15,2013-07-30 05:22:00,
2013-07-30 01:27:00,65.1,58.1,30.00,WNW,288,0.0,0.0,78,0.00,,,0.00,Wunderground v.1.15,2013-07-30 05:27:00,
2013-07-30 01:33:00,64.7,58.0,30.00,WNW,288,0.0,0.0,79,0.00,,,0.00,Wunderground v.1.15,2013-07-30 05:33:00,
2013-07-30 01:39:00,64.2,57.9,30.00,WNW,288,0.0,0.0,80,0.00,,,0.00,Wunderground v.1.15,2013-07-30 05:39:00,
2013-07-30 01:45:00,63.8,58.2,30.00,WNW,288,0.0,0.0,82,0.00,,,0.00,Wunderground v.1.15,2013-07-30 05:45:00,
2013-07-30 01:52:00,63.3,58.0,30.00,WNW,288,0.0,0.0,83,0.00,,,0.00,Wunderground v.1.15,2013-07-30 05:52:00,
2013-07-30 01:58:00,62.8,57.9,30.00,WNW,288,0.0,0.0,84,0.00,,,0.00,Wunderground v.1.15,2013-07-30 05:58:00,
2013-07-30 02:03:00,62.8,58.2,30.00,WNW,288,0.0,0.0,85,0.00,,,0.00,Wunderground v.1.15,2013-07-30 06:03:00,
2013-07-30 02:08:00,63.0,58.4,30.00,WNW,288,0.0,0.0,85,0.00,,,0.00,Wunderground v.1.15,2013-07-30 06:08:00,
2013-07-30 02:13:00,63.0,58.4,30.00,WNW,288,0.0,0.0,85,0.00,,,0.00,Wunderground v.1.15,2013-07-30 06:13:00,
2013-07-30 02:18:00,62.9,58.3,30.00,WNW,288,0.0,0.0,85,0.00,,,0.00,Wunderground v.1.15,2013-07-30 06:18:00,
2013-07-30 02:23:00,62.8,58.2,30.00,WNW,288,0.0,0.0,85,0.00,,,0.00,Wunderground v.1.15,2013-07-30 06:23:00,
2013-07-30 02:28:00,62.6,58.4,30.00,WNW,288,0.0,0.0,86,0.00,,,0.00,Wunderground v.1.15,2013-07-30 06:28:00,
2013-07-30 02:33:00,62.6,58.4,30.00,WNW,288,0.0,0.0,86,0.00,,,0.00,Wunderground v.1.15,2013-07-30 06:33:00,
2013-07-30 02:38:00,62.8,58.2,30.00,WNW,288,0.0,0.0,85,0.00,,,0.00,Wunderground v.1.15,2013-07-30 06:38:00,
2013-07-30 02:43:00,63.0,58.1,30.00,WNW,288,0.0,0.0,84,0.00,,,0.00,Wunderground v.1.15,2013-07-30 06:43:00,
2013-07-30 02:48:00,63.0,57.8,30.00,WNW,288,0.0,0.0,83,0.00,,,0.00,Wunderground v.1.15,2013-07-30 06:48:00,
2013-07-30 02:53:00,63.1,57.5,29.99,West,271,1.0,2.0,82,0.00,,,0.00,Wunderground v.1.15,2013-07-30 06:53:00,
2013-07-30 02:58:00,63.1,57.5,29.99,West,271,0.0,2.0,82,0.00,,,0.00,Wunderground v.1.15,2013-07-30 06:58:00,
2013-07-30 03:03:00,63.0,57.4,29.99,West,271,0.0,0.0,82,0.00,,,0.00,Wunderground v.1.15,2013-07-30 07:03:00,
2013-07-30 03:09:00,62.7,57.1,30.00,West,271,0.0,0.0,82,0.00,,,0.00,Wunderground v.1.15,2013-07-30 07:09:00,
2013-07-30 03:14:00,62.5,57.3,30.00,West,271,0.0,0.0,83,0.00,,,0.00,Wunderground v.1.15,2013-07-30 07:14:00,
2013-07-30 03:19:00,62.4,57.2,30.00,West,271,0.0,0.0,83,0.00,,,0.00,Wunderground v.1.15,2013-07-30 07:19:00,
2013-07-30 03:24:00,62.1,56.9,30.00,West,271,0.0,0.0,83,0.00,,,0.00,Wunderground v.1.15,2013-07-30 07:24:00,
2013-07-30 03:29:00,61.9,57.3,30.00,West,271,0.0,0.0,85,0.00,,,0.00,Wunderground v.1.15,2013-07-30 07:29:00,
2013-07-30 03:34:00,61.6,57.0,29.99,West,271,0.0,0.0,85,0.00,,,0.00,Wunderground v.1.15,2013-07-30 07:34:00,
2013-07-30 03:39:00,61.4,57.2,29.99,West,271,0.0,0.0,86,0.00,,,0.00,Wunderground v.1.15,2013-07-30 07:39:00,
2013-07-30 03:44:00,61.1,56.9,30.00,West,271,0.0,0.0,86,0.00,,,0.00,Wunderground v.1.15,2013-07-30 07:44:00,
2013-07-30 03:49:00,61.0,57.1,30.00,West,271,0.0,0.0,87,0.00,,,0.00,Wunderground v.1.15,2013-07-30 07:49:00,
2013-07-30 03:55:00,60.9,57.0,30.00,West,271,0.0,0.0,87,0.00,,,0.00,Wunderground v.1.15,2013-07-30 07:55:00,
2013-07-30 04:00:00,60.9,57.3,30.00,West,271,0.0,0.0,88,0.00,,,0.00,Wunderground v.1.15,2013-07-30 08:00:00,
2013-07-30 04:05:00,60.9,57.3,30.00,West,271,0.0,0.0,88,0.00,,,0.00,Wunderground v.1.15,2013-07-30 08:05:00,
2013-07-30 04:10:00,60.9,57.0,30.01,West,271,0.0,0.0,87,0.00,,,0.00,Wunderground v.1.15,2013-07-30 08:10:00,
2013-07-30 04:15:00,60.7,57.1,30.01,West,271,0.0,0.0,88,0.00,,,0.00,Wunderground v.1.15,2013-07-30 08:15:00,
2013-07-30 04:20:00,60.4,56.8,30.01,West,271,0.0,0.0,88,0.00,,,0.00,Wunderground v.1.15,2013-07-30 08:20:00,
2013-07-30 04:25:00,60.2,56.9,30.01,West,271,0.0,0.0,89,0.00,,,0.00,Wunderground v.1.15,2013-07-30 08:25:00,
2013-07-30 04:30:00,60.1,56.8,30.01,West,271,0.0,0.0,89,0.00,,,0.00,Wunderground v.1.15,2013-07-30 08:30:00,
2013-07-30 04:35:00,60.0,56.7,30.01,West,271,0.0,0.0,89,0.00,,,0.00,Wunderground v.1.15,2013-07-30 08:35:00,
2013-07-30 04:40:00,59.9,57.0,30.01,West,271,0.0,0.0,90,0.00,,,0.00,Wunderground v.1.15,2013-07-30 08:40:00,
2013-07-30 04:45:00,59.8,56.6,30.01,West,271,0.0,0.0,89,0.00,,,0.00,Wunderground v.1.15,2013-07-30 08:45:00,
2013-07-30 04:51:00,59.9,57.0,30.01,West,271,0.0,0.0,90,0.00,,,0.00,Wunderground v.1.15,2013-07-30 08:51:00,
2013-07-30 04:56:00,60.0,57.1,30.02,West,271,0.0,0.0,90,0.00,,,0.00,Wunderground v.1.15,2013-07-30 08:56:00,
2013-07-30 05:01:00,60.0,56.7,30.02,West,271,0.0,0.0,89,0.00,,,0.00,Wunderground v.1.15,2013-07-30 09:01:00,
2013-07-30 05:06:00,60.4,56.8,30.02,West,271,0.0,0.0,88,0.00,,,0.00,Wunderground v.1.15,2013-07-30 09:06:00,
2013-07-30 05:11:00,60.6,56.7,30.02,West,271,0.0,0.0,87,0.00,,,0.00,Wunderground v.1.15,2013-07-30 09:11:00,
2013-07-30 05:17:00,60.5,56.6,30.02,West,271,0.0,0.0,87,0.00,,,0.00,Wunderground v.1.15,2013-07-30 09:17:00,
2013-07-30 05:22:00,60.3,56.4,30.02,West,271,0.0,0.0,87,0.00,,,0.00,Wunderground v.1.15,2013-07-30 09:22:00,
2013-07-30 05:27:00,60.1,56.5,30.02,West,271,0.0,0.0,88,0.00,,,0.00,Wunderground v.1.15,2013-07-30 09:27:00,
2013-07-30 05:32:00,59.9,56.6,30.03,West,271,0.0,0.0,89,0.00,,,0.00,Wunderground v.1.15,2013-07-30 09:32:00,
2013-07-30 05:37:00,59.5,56.3,30.03,West,271,0.0,0.0,89,0.00,,,0.00,Wunderground v.1.15,2013-07-30 09:37:00,
2013-07-30 05:42:00,59.2,56.3,30.03,West,271,0.0,0.0,90,0.00,,,0.00,Wunderground v.1.15,2013-07-30 09:42:00,
2013-07-30 05:47:00,58.9,56.3,30.04,West,271,0.0,0.0,91,0.00,,,0.00,Wunderground v.1.15,2013-07-30 09:47:00,
2013-07-30 05:52:00,58.7,56.1,30.04,West,271,0.0,0.0,91,0.00,,,0.00,Wunderground v.1.15,2013-07-30 09:52:00,
2013-07-30 05:57:00,58.6,56.3,30.04,West,271,0.0,0.0,92,0.00,,,0.00,Wunderground v.1.15,2013-07-30 09:57:00,
2013-07-30 06:02:00,58.5,56.2,30.04,West,271,0.0,0.0,92,0.00,,,0.00,Wunderground v.1.15,2013-07-30 10:02:00,
2013-07-30 06:08:00,58.4,56.4,30.04,West,271,0.0,0.0,93,0.00,,,0.00,Wunderground v.1.15,2013-07-30 10:08:00,
2013-07-30 06:13:00,58.4,56.4,30.04,West,271,0.0,0.0,93,0.00,,,0.00,Wunderground v.1.15,2013-07-30 10:13:00,
2013-07-30 06:18:00,58.4,56.4,30.04,West,271,0.0,0.0,93,0.00,,,0.00,Wunderground v.1.15,2013-07-30 10:18:00,
2013-07-30 06:23:00,58.8,56.8,30.04,West,271,0.0,0.0,93,0.00,,,0.00,Wunderground v.1.15,2013-07-30 10:23:00,
2013-07-30 06:28:00,58.9,56.6,30.05,West,271,0.0,0.0,92,0.00,,,0.00,Wunderground v.1.15,2013-07-30 10:28:00,
2013-07-30 06:33:00,59.2,57.2,30.04,West,271,0.0,0.0,93,0.00,,,0.00,Wunderground v.1.15,2013-07-30 10:33:00,
2013-07-30 06:38:00,59.9,57.6,30.04,West,271,0.0,0.0,92,0.00,,,0.00,Wunderground v.1.15,2013-07-30 10:38:00,
2013-07-30 06:43:00,60.8,57.8,30.05,West,271,0.0,0.0,90,0.00,,,0.00,Wunderground v.1.15,2013-07-30 10:43:00,
2013-07-30 06:48:00,61.6,58.0,30.05,West,274,0.0,0.0,88,0.00,,,0.00,Wunderground v.1.15,2013-07-30 10:48:00,
2013-07-30 06:53:00,62.3,58.1,30.05,WNW,284,0.0,0.0,86,0.00,,,0.00,Wunderground v.1.15,2013-07-30 10:53:00,
2013-07-30 06:58:00,62.8,58.2,30.05,WNW,283,0.0,0.0,85,0.00,,,0.00,Wunderground v.1.15,2013-07-30 10:58:00,
2013-07-30 07:03:00,63.3,58.4,30.05,West,279,1.0,2.0,84,0.00,,,0.00,Wunderground v.1.15,2013-07-30 11:03:00,
2013-07-30 07:08:00,63.7,58.4,30.05,WNW,286,0.0,2.0,83,0.00,,,0.00,Wunderground v.1.15,2013-07-30 11:08:00,
2013-07-30 07:13:00,64.1,58.5,30.05,West,271,2.0,2.0,82,0.00,,,0.00,Wunderground v.1.15,2013-07-30 11:13:00,
2013-07-30 07:19:00,64.7,58.7,30.05,NNE,25,2.0,2.0,81,0.00,,,0.00,Wunderground v.1.15,2013-07-30 11:19:00,
2013-07-30 07:24:00,65.3,59.0,30.05,North,11,0.0,1.0,80,0.00,,,0.00,Wunderground v.1.15,2013-07-30 11:24:00,
2013-07-30 07:29:00,65.6,59.3,30.05,North,11,0.0,1.0,80,0.00,,,0.00,Wunderground v.1.15,2013-07-30 11:29:00,
2013-07-30 07:34:00,66.2,59.5,30.05,WNW,294,0.0,0.0,79,0.00,,,0.00,Wunderground v.1.15,2013-07-30 11:34:00,
2013-07-30 07:39:00,66.6,59.5,30.05,WNW,300,0.0,0.0,78,0.00,,,0.00,Wunderground v.1.15,2013-07-30 11:39:00,
2013-07-30 07:44:00,66.9,59.5,30.05,WNW,291,0.0,0.0,77,0.00,,,0.00,Wunderground v.1.15,2013-07-30 11:44:00,
2013-07-30 07:49:00,67.9,60.1,30.05,NW,304,0.0,0.0,76,0.00,,,0.00,Wunderground v.1.15,2013-07-30 11:49:00,
2013-07-30 07:54:00,68.3,59.7,30.06,ENE,70,0.0,1.0,74,0.00,,,0.00,Wunderground v.1.15,2013-07-30 11:54:00,
2013-07-30 07:59:00,68.7,60.1,30.06,NNW,341,0.0,1.0,74,0.00,,,0.00,Wunderground v.1.15,2013-07-30 11:59:00,
2013-07-30 08:04:00,69.1,60.5,30.06,NE,34,4.0,4.0,74,0.00,,,0.00,Wunderground v.1.15,2013-07-30 12:04:00,
2013-07-30 08:09:00,69.3,60.3,30.06,NE,34,4.0,5.0,73,0.00,,,0.00,Wunderground v.1.15,2013-07-30 12:09:00,
2013-07-30 08:14:00,69.6,59.4,30.06,NW,318,2.0,5.0,70,0.00,,,0.00,Wunderground v.1.15,2013-07-30 12:14:00,
2013-07-30 08:19:00,69.9,59.3,30.06,NNE,20,7.0,7.0,69,0.00,,,0.00,Wunderground v.1.15,2013-07-30 12:19:00,
2013-07-30 08:24:00,70.1,59.0,30.06,North,10,2.0,6.0,68,0.00,,,0.00,Wunderground v.1.15,2013-07-30 12:24:00,
2013-07-30 08:29:00,70.3,59.2,30.06,North,5,3.0,7.0,68,0.00,,,0.00,Wunderground v.1.15,2013-07-30 12:29:00,
2013-07-30 08:35:00,70.5,59.0,30.06,NW,312,6.0,6.0,67,0.00,,,0.00,Wunderground v.1.15,2013-07-30 12:35:00,
2013-07-30 08:40:00,70.5,59.0,30.06,ENE,78,2.0,7.0,67,0.00,,,0.00,Wunderground v.1.15,2013-07-30 12:40:00,
2013-07-30 08:45:00,70.8,59.3,30.06,North,356,4.0,7.0,67,0.00,,,0.00,Wunderground v.1.15,2013-07-30 12:45:00,
2013-07-30 08:50:00,70.9,59.4,30.06,NNE,29,3.0,7.0,67,0.00,,,0.00,Wunderground v.1.15,2013-07-30 12:50:00,
2013-07-30 08:55:00,71.1,60.0,30.06,WNW,295,3.0,6.0,68,0.00,,,0.00,Wunderground v.1.15,2013-07-30 12:55:00,
2013-07-30 09:00:00,71.4,59.4,30.06,WNW,287,6.0,9.0,66,0.00,,,0.00,Wunderground v.1.15,2013-07-30 13:00:00,
2013-07-30 09:05:00,71.6,60.1,30.06,NNE,18,2.0,6.0,67,0.00,,,0.00,Wunderground v.1.15,2013-07-30 13:05:00,
2013-07-30 09:10:00,72.4,60.8,30.06,East,82,1.0,6.0,67,0.00,,,0.00,Wunderground v.1.15,2013-07-30 13:10:00,
2013-07-30 09:15:00,72.9,60.9,30.06,NNE,29,3.0,5.0,66,0.00,,,0.00,Wunderground v.1.15,2013-07-30 13:15:00,
2013-07-30 09:20:00,72.9,60.0,30.06,NNW,343,4.0,7.0,64,0.00,,,0.00,Wunderground v.1.15,2013-07-30 13:20:00,
2013-07-30 09:25:00,72.6,60.2,30.06,NW,321,2.0,7.0,65,0.00,,,0.00,Wunderground v.1.15,2013-07-30 13:25:00,
2013-07-30 09:31:00,72.8,60.3,30.06,NNE,26,4.0,4.0,65,0.00,,,0.00,Wunderground v.1.15,2013-07-30 13:31:00,
2013-07-30 09:36:00,72.9,60.4,30.06,NNE,30,3.0,9.0,65,0.00,,,0.00,Wunderground v.1.15,2013-07-30 13:36:00,
2013-07-30 09:41:00,73.4,60.0,30.06,North,6,1.0,4.0,63,0.00,,,0.00,Wunderground v.1.15,2013-07-30 13:41:00,
2013-07-30 09:46:00,73.6,60.2,30.06,North,359,4.0,7.0,63,0.00,,,0.00,Wunderground v.1.15,2013-07-30 13:46:00,
2013-07-30 09:51:00,73.6,59.8,30.06,North,354,4.0,8.0,62,0.00,,,0.00,Wunderground v.1.15,2013-07-30 13:51:00,
2013-07-30 09:57:00,73.7,59.9,30.06,NW,321,2.0,8.0,62,0.00,,,0.00,Wunderground v.1.15,2013-07-30 13:57:00,
2013-07-30 10:02:00,74.1,59.8,30.06,NW,309,6.0,7.0,61,0.00,,,0.00,Wunderground v.1.15,2013-07-30 14:02:00,
2013-07-30 10:07:00,73.8,60.0,30.06,NNE,26,4.0,7.0,62,0.00,,,0.00,Wunderground v.1.15,2013-07-30 14:07:00,
2013-07-30 10:12:00,74.2,60.3,30.06,NNW,329,4.0,5.0,62,0.00,,,0.00,Wunderground v.1.15,2013-07-30 14:12:00,
2013-07-30 10:17:00,74.5,60.6,30.06,WNW,283,1.0,5.0,62,0.00,,,0.00,Wunderground v.1.15,2013-07-30 14:17:00,
2013-07-30 10:22:00,75.2,59.9,30.06,NNE,29,5.0,5.0,59,0.00,,,0.00,Wunderground v.1.15,2013-07-30 14:22:00,
2013-07-30 10:27:00,75.3,60.0,30.06,North,7,4.0,8.0,59,0.00,,,0.00,Wunderground v.1.15,2013-07-30 14:27:00,
2013-07-30 10:32:00,75.5,59.7,30.06,NNW,348,3.0,7.0,58,0.00,,,0.00,Wunderground v.1.15,2013-07-30 14:32:00,
2013-07-30 10:37:00,75.7,59.9,30.05,NW,307,1.0,7.0,58,0.00,,,0.00,Wunderground v.1.15,2013-07-30 14:37:00,
2013-07-30 10:42:00,76.1,60.2,30.05,North,1,2.0,6.0,58,0.00,,,0.00,Wunderground v.1.15,2013-07-30 14:42:00,
2013-07-30 10:47:00,76.2,59.4,30.05,NE,49,2.0,6.0,56,0.00,,,0.00,Wunderground v.1.15,2013-07-30 14:47:00,
2013-07-30 10:52:00,76.4,60.5,30.05,NE,43,3.0,4.0,58,0.00,,,0.00,Wunderground v.1.15,2013-07-30 14:52:00,
2013-07-30 10:57:00,76.3,60.4,30.05,ENE,67,2.0,9.0,58,0.00,,,0.00,Wunderground v.1.15,2013-07-30 14:57:00,
2013-07-30 11:02:00,77.0,60.6,30.05,West,276,5.0,5.0,57,0.00,,,0.00,Wunderground v.1.15,2013-07-30 15:02:00,
2013-07-30 11:07:00,76.9,59.0,30.05,WSW,239,3.0,8.0,54,0.00,,,0.00,Wunderground v.1.15,2013-07-30 15:07:00,
2013-07-30 11:13:00,76.8,59.9,30.05,West,280,3.0,7.0,56,0.00,,,0.00,Wunderground v.1.15,2013-07-30 15:13:00,
2013-07-30 11:18:00,77.0,59.1,30.05,WNW,282,1.0,7.0,54,0.00,,,0.00,Wunderground v.1.15,2013-07-30 15:18:00,
2013-07-30 11:23:00,77.2,59.8,30.05,East,94,2.0,4.0,55,0.00,,,0.00,Wunderground v.1.15,2013-07-30 15:23:00,
2013-07-30 11:28:00,77.7,59.7,30.04,SSW,195,5.0,5.0,54,0.00,,,0.00,Wunderground v.1.15,2013-07-30 15:28:00,
2013-07-30 11:33:00,78.0,59.5,30.04,West,270,9.0,9.0,53,0.00,,,0.00,Wunderground v.1.15,2013-07-30 15:33:00,
2013-07-30 11:38:00,77.8,59.3,30.04,WNW,287,2.0,9.0,53,0.00,,,0.00,Wunderground v.1.15,2013-07-30 15:38:00,
2013-07-30 11:44:00,78.0,58.9,30.04,West,274,6.0,7.0,52,0.00,,,0.00,Wunderground v.1.15,2013-07-30 15:44:00,
2013-07-30 11:49:00,78.0,59.5,30.04,NW,314,2.0,9.0,53,0.00,,,0.00,Wunderground v.1.15,2013-07-30 15:49:00,
2013-07-30 11:54:00,78.6,58.4,30.04,WNW,285,4.0,8.0,50,0.00,,,0.00,Wunderground v.1.15,2013-07-30 15:54:00,
2013-07-30 11:59:00,78.1,58.5,30.03,NNW,340,3.0,9.0,51,0.00,,,0.00,Wunderground v.1.15,2013-07-30 15:59:00,
2013-07-30 12:04:00,78.1,58.5,30.03,NNW,348,7.0,12.0,51,0.00,,,0.00,Wunderground v.1.15,2013-07-30 16:04:00,
2013-07-30 12:09:00,78.3,58.1,30.03,NNW,327,2.0,12.0,50,0.00,,,0.00,Wunderground v.1.15,2013-07-30 16:09:00,
2013-07-30 12:14:00,78.5,57.7,30.04,NW,322,4.0,9.0,49,0.00,,,0.00,Wunderground v.1.15,2013-07-30 16:14:00,
2013-07-30 12:19:00,79.2,58.4,30.04,North,349,1.0,9.0,49,0.00,,,0.00,Wunderground v.1.15,2013-07-30 16:19:00,
2013-07-30 12:24:00,79.5,58.7,30.03,NNW,344,4.0,6.0,49,0.00,,,0.00,Wunderground v.1.15,2013-07-30 16:24:00,
2013-07-30 12:29:00,79.6,59.9,30.03,NNW,343,2.0,10.0,51,0.00,,,0.00,Wunderground v.1.15,2013-07-30 16:29:00,
2013-07-30 12:34:00,79.6,59.3,30.03,NE,40,3.0,6.0,50,0.00,,,0.00,Wunderground v.1.15,2013-07-30 16:34:00,
2013-07-30 12:39:00,79.9,59.0,30.03,West,278,2.0,6.0,49,0.00,,,0.00,Wunderground v.1.15,2013-07-30 16:39:00,
2013-07-30 12:44:00,79.9,58.5,30.03,NW,309,1.0,10.0,48,0.00,,,0.00,Wunderground v.1.15,2013-07-30 16:44:00,
2013-07-30 12:49:00,80.0,59.1,30.03,North,358,3.0,10.0,49,0.00,,,0.00,Wunderground v.1.15,2013-07-30 16:49:00,
2013-07-30 12:54:00,80.6,59.7,30.03,WNW,286,3.0,11.0,49,0.00,,,0.00,Wunderground v.1.15,2013-07-30 16:54:00,
2013-07-30 12:59:00,79.8,58.4,30.03,NNE,13,3.0,11.0,48,0.00,,,0.00,Wunderground v.1.15,2013-07-30 16:59:00,
2013-07-30 13:04:00,79.9,59.0,30.03,East,98,5.0,8.0,49,0.00,,,0.00,Wunderground v.1.15,2013-07-30 17:04:00,
2013-07-30 13:09:00,79.6,59.3,30.03,NNE,12,2.0,8.0,50,0.00,,,0.00,Wunderground v.1.15,2013-07-30 17:09:00,
2013-07-30 13:14:00,80.7,60.3,30.03,NE,51,2.0,7.0,50,0.00,,,0.00,Wunderground v.1.15,2013-07-30 17:14:00,
2013-07-30 13:19:00,80.6,59.7,30.02,NNE,23,4.0,7.0,49,0.00,,,0.00,Wunderground v.1.15,2013-07-30 17:19:00,
2013-07-30 13:24:00,80.5,58.4,30.02,NNE,29,4.0,6.0,47,0.00,,,0.00,Wunderground v.1.15,2013-07-30 17:24:00,
2013-07-30 13:29:00,80.4,59.5,30.02,North,8,1.0,6.0,49,0.00,,,0.00,Wunderground v.1.15,2013-07-30 17:29:00,
2013-07-30 13:34:00,80.6,59.1,30.02,West,275,4.0,5.0,48,0.00,,,0.00,Wunderground v.1.15,2013-07-30 17:34:00,
2013-07-30 13:39:00,80.5,59.0,30.02,NNE,18,5.0,10.0,48,0.00,,,0.00,Wunderground v.1.15,2013-07-30 17:39:00,
2013-07-30 13:44:00,80.3,60.0,30.02,West,271,1.0,9.0,50,0.00,,,0.00,Wunderground v.1.15,2013-07-30 17:44:00,
2013-07-30 13:49:00,80.8,59.9,30.02,West,274,3.0,9.0,49,0.00,,,0.00,Wunderground v.1.15,2013-07-30 17:49:00,
2013-07-30 13:54:00,80.8,59.9,30.02,NW,307,5.0,7.0,49,0.00,,,0.00,Wunderground v.1.15,2013-07-30 17:54:00,
2013-07-30 14:00:00,80.9,59.9,30.02,WSW,249,4.0,5.0,49,0.00,,,0.00,Wunderground v.1.15,2013-07-30 18:00:00,
2013-07-30 14:05:00,82.0,60.4,30.02,WSW,253,1.0,8.0,48,0.00,,,0.00,Wunderground v.1.15,2013-07-30 18:05:00,
2013-07-30 14:10:00,80.9,58.8,30.02,West,279,3.0,4.0,47,0.00,,,0.00,Wunderground v.1.15,2013-07-30 18:10:00,
2013-07-30 14:15:00,80.5,59.6,30.02,North,10,1.0,6.0,49,0.00,,,0.00,Wunderground v.1.15,2013-07-30 18:15:00,
2013-07-30 14:20:00,79.6,59.9,30.02,East,98,2.0,4.0,51,0.00,,,0.00,Wunderground v.1.15,2013-07-30 18:20:00,
2013-07-30 14:25:00,79.2,58.4,30.01,NNE,24,3.0,6.0,49,0.00,,,0.00,Wunderground v.1.15,2013-07-30 18:25:00,
2013-07-30 14:30:00,79.1,58.3,30.01,NNW,348,4.0,5.0,49,0.00,,,0.00,Wunderground v.1.15,2013-07-30 18:30:00,
2013-07-30 14:36:00,78.7,57.9,30.01,West,264,1.0,5.0,49,0.00,,,0.00,Wunderground v.1.15,2013-07-30 18:36:00,
2013-07-30 14:41:00,79.3,59.0,30.01,West,277,2.0,7.0,50,0.00,,,0.00,Wunderground v.1.15,2013-07-30 18:41:00,
2013-07-30 14:46:00,80.1,59.8,30.01,North,356,5.0,7.0,50,0.00,,,0.00,Wunderground v.1.15,2013-07-30 18:46:00,
2013-07-30 14:51:00,79.6,59.9,30.01,NE,43,3.0,6.0,51,0.00,,,0.00,Wunderground v.1.15,2013-07-30 18:51:00,
2013-07-30 14:56:00,79.2,59.5,30.01,North,352,1.0,8.0,51,0.00,,,0.00,Wunderground v.1.15,2013-07-30 18:56:00,
2013-07-30 15:01:00,79.1,59.4,30.01,North,1,2.0,4.0,51,0.00,,,0.00,Wunderground v.1.15,2013-07-30 19:01:00,
2013-07-30 15:06:00,79.8,59.5,30.01,West,280,6.0,6.0,50,0.00,,,0.00,Wunderground v.1.15,2013-07-30 19:06:00,
2013-07-30 15:11:00,78.9,58.1,30.01,WNW,285,3.0,8.0,49,0.00,,,0.00,Wunderground v.1.15,2013-07-30 19:11:00,
2013-07-30 15:16:00,78.9,59.2,30.01,NW,304,4.0,8.0,51,0.00,,,0.00,Wunderground v.1.15,2013-07-30 19:16:00,
2013-07-30 15:22:00,79.9,59.0,30.01,ENE,77,1.0,4.0,49,0.00,,,0.00,Wunderground v.1.15,2013-07-30 19:22:00,
2013-07-30 15:27:00,80.9,59.4,30.00,West,274,6.0,9.0,48,0.00,,,0.00,Wunderground v.1.15,2013-07-30 19:27:00,
2013-07-30 15:32:00,80.3,60.0,30.00,WNW,287,6.0,6.0,50,0.00,,,0.00,Wunderground v.1.15,2013-07-30 19:32:00,
2013-07-30 15:38:00,79.6,58.8,30.01,NNW,343,1.0,8.0,49,0.00,,,0.00,Wunderground v.1.15,2013-07-30 19:38:00,
2013-07-30 16:12:00,79.6,58.8,30.00,WNW,293,1.0,3.0,49,0.00,,,0.00,Wunderground v.1.15,2013-07-30 20:12:00,
2013-07-30 16:17:00,80.1,59.2,30.00,NW,318,3.0,8.0,49,0.00,,,0.00,Wunderground v.1.15,2013-07-30 20:17:00,
2013-07-30 16:22:00,80.6,59.1,30.00,ENE,61,3.0,5.0,48,0.00,,,0.00,Wunderground v.1.15,2013-07-30 20:22:00,
2013-07-30 16:27:00,81.0,60.0,30.00,North,349,1.0,6.0,49,0.00,,,0.00,Wunderground v.1.15,2013-07-30 20:27:00,
2013-07-30 16:32:00,81.2,59.1,30.00,NNW,327,3.0,8.0,47,0.00,,,0.00,Wunderground v.1.15,2013-07-30 20:32:00,
2013-07-30 16:37:00,79.9,59.6,30.00,NW,324,1.0,8.0,50,0.00,,,0.00,Wunderground v.1.15,2013-07-30 20:37:00,
2013-07-30 16:42:00,79.5,58.7,30.00,NNW,335,2.0,5.0,49,0.00,,,0.00,Wunderground v.1.15,2013-07-30 20:42:00,
2013-07-30 16:47:00,79.2,59.0,29.99,North,6,3.0,7.0,50,0.00,,,0.00,Wunderground v.1.15,2013-07-30 20:47:00,
2013-07-30 16:53:00,80.1,59.2,29.99,North,356,4.0,6.0,49,0.00,,,0.00,Wunderground v.1.15,2013-07-30 20:53:00,
2013-07-30 16:58:00,80.6,60.2,29.99,NNE,32,6.0,7.0,50,0.00,,,0.00,Wunderground v.1.15,2013-07-30 20:58:00,
2013-07-30 17:03:00,81.0,59.5,29.99,NE,39,6.0,8.0,48,0.00,,,0.00,Wunderground v.1.15,2013-07-30 21:03:00,
2013-07-30 17:08:00,80.6,59.7,29.99,NNW,330,5.0,9.0,49,0.00,,,0.00,Wunderground v.1.15,2013-07-30 21:08:00,
2013-07-30 17:13:00,80.2,59.3,29.99,NNE,22,2.0,7.0,49,0.00,,,0.00,Wunderground v.1.15,2013-07-30 21:13:00,
2013-07-30 17:18:00,79.7,59.4,29.99,WNW,293,1.0,7.0,50,0.00,,,0.00,Wunderground v.1.15,2013-07-30 21:18:00,
2013-07-30 17:23:00,80.1,60.3,29.99,WNW,286,3.0,4.0,51,0.00,,,0.00,Wunderground v.1.15,2013-07-30 21:23:00,
2013-07-30 17:28:00,79.7,60.0,30.00,NW,309,2.0,4.0,51,0.00,,,0.00,Wunderground v.1.15,2013-07-30 21:28:00,
2013-07-30 17:33:00,79.5,59.2,30.00,NNW,332,2.0,5.0,50,0.00,,,0.00,Wunderground v.1.15,2013-07-30 21:33:00,
2013-07-30 17:38:00,79.4,60.2,30.00,NNW,347,1.0,6.0,52,0.00,,,0.00,Wunderground v.1.15,2013-07-30 21:38:00,
2013-07-30 17:43:00,80.2,59.9,30.00,NE,34,2.0,4.0,50,0.00,,,0.00,Wunderground v.1.15,2013-07-30 21:43:00,
2013-07-30 17:48:00,80.8,59.9,30.00,NNW,335,2.0,6.0,49,0.00,,,0.00,Wunderground v.1.15,2013-07-30 21:48:00,
2013-07-30 17:53:00,80.0,59.7,30.00,NNE,27,3.0,5.0,50,0.00,,,0.00,Wunderground v.1.15,2013-07-30 21:53:00,
2013-07-30 17:58:00,79.6,59.9,30.00,NNE,25,2.0,8.0,51,0.00,,,0.00,Wunderground v.1.15,2013-07-30 21:58:00,
2013-07-30 18:03:00,79.2,59.5,30.00,NNW,328,2.0,4.0,51,0.00,,,0.00,Wunderground v.1.15,2013-07-30 22:03:00,
2013-07-30 18:08:00,79.5,59.2,30.00,NNE,19,2.0,5.0,50,0.00,,,0.00,Wunderground v.1.15,2013-07-30 22:08:00,
2013-07-30 18:13:00,80.1,60.3,30.00,NNE,18,1.0,4.0,51,0.00,,,0.00,Wunderground v.1.15,2013-07-30 22:13:00,
2013-07-30 18:18:00,80.5,60.7,30.00,NNW,339,3.0,6.0,51,0.00,,,0.00,Wunderground v.1.15,2013-07-30 22:18:00,
2013-07-30 18:23:00,80.2,59.9,30.00,NNW,335,1.0,6.0,50,0.00,,,0.00,Wunderground v.1.15,2013-07-30 22:23:00,
2013-07-30 18:28:00,79.6,59.9,30.00,NW,311,2.0,6.0,51,0.00,,,0.00,Wunderground v.1.15,2013-07-30 22:28:00,
2013-07-30 18:33:00,79.1,60.0,30.01,West,273,5.0,8.0,52,0.00,,,0.00,Wunderground v.1.15,2013-07-30 22:33:00,
2013-07-30 18:38:00,78.9,59.8,30.01,NW,304,2.0,8.0,52,0.00,,,0.00,Wunderground v.1.15,2013-07-30 22:38:00,
2013-07-30 18:43:00,78.9,60.3,30.01,North,5,2.0,4.0,53,0.00,,,0.00,Wunderground v.1.15,2013-07-30 22:43:00,
2013-07-30 18:48:00,78.9,60.3,30.01,West,278,2.0,4.0,53,0.00,,,0.00,Wunderground v.1.15,2013-07-30 22:48:00,
2013-07-30 18:53:00,78.6,60.0,30.01,NNW,339,2.0,6.0,53,0.00,,,0.00,Wunderground v.1.15,2013-07-30 22:53:00,
2013-07-30 18:58:00,78.7,59.6,30.01,NW,321,1.0,6.0,52,0.00,,,0.00,Wunderground v.1.15,2013-07-30 22:58:00,
2013-07-30 19:03:00,78.2,59.7,30.01,NNW,338,1.0,6.0,53,0.00,,,0.00,Wunderground v.1.15,2013-07-30 23:03:00,
2013-07-30 19:08:00,78.2,59.7,30.01,NNW,348,1.0,6.0,53,0.00,,,0.00,Wunderground v.1.15,2013-07-30 23:08:00,
2013-07-30 19:14:00,78.4,59.9,30.01,North,358,2.0,2.0,53,0.00,,,0.00,Wunderground v.1.15,2013-07-30 23:14:00,
2013-07-30 19:19:00,77.9,59.9,30.01,NW,318,1.0,4.0,54,0.00,,,0.00,Wunderground v.1.15,2013-07-30 23:19:00,
2013-07-30 19:24:00,77.4,60.0,30.01,NNW,339,1.0,2.0,55,0.00,,,0.00,Wunderground v.1.15,2013-07-30 23:24:00,
2013-07-30 19:29:00,76.9,60.0,30.01,NNE,22,1.0,3.0,56,0.00,,,0.00,Wunderground v.1.15,2013-07-30 23:29:00,
2013-07-30 19:34:00,76.6,59.7,30.01,NNW,346,0.0,2.0,56,0.00,,,0.00,Wunderground v.1.15,2013-07-30 23:34:00,
2013-07-30 19:39:00,76.3,59.9,30.01,NNW,343,0.0,2.0,57,0.00,,,0.00,Wunderground v.1.15,2013-07-30 23:39:00,
2013-07-30 19:44:00,76.0,60.2,30.01,NW,308,0.0,1.0,58,0.00,,,0.00,Wunderground v.1.15,2013-07-30 23:44:00,
2013-07-30 19:49:00,75.7,60.4,30.01,NW,308,0.0,1.0,59,0.00,,,0.00,Wunderground v.1.15,2013-07-30 23:49:00,
2013-07-30 19:54:00,75.3,60.5,30.01,NW,312,0.0,1.0,60,0.00,,,0.00,Wunderground v.1.15,2013-07-30 23:54:00,
2013-07-30 20:00:00,75.0,60.2,30.01,North,356,1.0,3.0,60,0.00,,,0.00,Wunderground v.1.15,2013-07-31 00:00:00,
2013-07-30 20:05:00,74.8,60.0,30.01,North,359,0.0,1.0,60,0.00,,,0.00,Wunderground v.1.15,2013-07-31 00:05:00,
2013-07-30 20:10:00,74.5,60.2,30.01,North,360,1.0,1.0,61,0.00,,,0.00,Wunderground v.1.15,2013-07-31 00:10:00,
2013-07-30 20:15:00,74.2,59.9,30.01,North,360,0.0,1.0,61,0.00,,,0.00,Wunderground v.1.15,2013-07-31 00:15:00,
2013-07-30 20:20:00,73.9,60.1,30.01,North,360,0.0,0.0,62,0.00,,,0.00,Wunderground v.1.15,2013-07-31 00:20:00,
2013-07-30 20:25:00,73.5,61.0,30.01,North,360,0.0,0.0,65,0.00,,,0.00,Wunderground v.1.15,2013-07-31 00:25:00,
2013-07-30 20:30:00,72.9,60.9,30.01,North,360,0.0,0.0,66,0.00,,,0.00,Wunderground v.1.15,2013-07-31 00:30:00,
2013-07-30 20:35:00,72.5,60.9,30.01,North,360,0.0,0.0,67,0.00,,,0.00,Wunderground v.1.15,2013-07-31 00:35:00,
2013-07-30 20:40:00,72.2,61.0,30.01,North,360,0.0,0.0,68,0.00,,,0.00,Wunderground v.1.15,2013-07-31 00:40:00,
2013-07-30 20:45:00,71.9,60.8,30.01,North,359,0.0,0.0,68,0.00,,,0.00,Wunderground v.1.15,2013-07-31 00:45:00,
2013-07-30 20:50:00,71.6,60.9,30.01,North,360,0.0,0.0,69,0.00,,,0.00,Wunderground v.1.15,2013-07-31 00:50:00,
2013-07-30 20:55:00,71.3,60.6,30.01,North,359,0.0,0.0,69,0.00,,,0.00,Wunderground v.1.15,2013-07-31 00:55:00,
2013-07-30 21:00:00,71.1,60.8,30.01,North,359,0.0,0.0,70,0.00,,,0.00,Wunderground v.1.15,2013-07-31 01:00:00,
2013-07-30 21:05:00,70.9,61.4,30.01,North,360,0.0,0.0,72,0.00,,,0.00,Wunderground v.1.15,2013-07-31 01:05:00,
2013-07-30 21:11:00,70.8,61.3,30.01,North,360,0.0,0.0,72,0.00,,,0.00,Wunderground v.1.15,2013-07-31 01:11:00,
2013-07-30 21:16:00,70.3,60.8,30.01,North,359,0.0,0.0,72,0.00,,,0.00,Wunderground v.1.15,2013-07-31 01:16:00,
2013-07-30 21:21:00,69.9,61.2,30.01,North,360,0.0,0.0,74,0.00,,,0.00,Wunderground v.1.15,2013-07-31 01:21:00,
2013-07-30 21:26:00,69.6,60.9,30.01,North,359,0.0,0.0,74,0.00,,,0.00,Wunderground v.1.15,2013-07-31 01:26:00,
2013-07-30 21:31:00,69.3,61.0,30.01,North,359,0.0,0.0,75,0.00,,,0.00,Wunderground v.1.15,2013-07-31 01:31:00,
2013-07-30 21:37:00,69.2,60.9,30.01,North,359,0.0,0.0,75,0.00,,,0.00,Wunderground v.1.15,2013-07-31 01:37:00,
2013-07-30 21:42:00,69.0,61.1,30.02,North,360,0.0,0.0,76,0.00,,,0.00,Wunderground v.1.15,2013-07-31 01:42:00,
2013-07-30 21:47:00,68.7,60.8,30.02,North,360,0.0,0.0,76,0.00,,,0.00,Wunderground v.1.15,2013-07-31 01:47:00,
2013-07-30 21:52:00,68.4,60.9,30.02,North,359,0.0,0.0,77,0.00,,,0.00,Wunderground v.1.15,2013-07-31 01:52:00,
2013-07-30 21:58:00,68.2,60.7,30.02,North,360,0.0,0.0,77,0.00,,,0.00,Wunderground v.1.15,2013-07-31 01:58:00,
2013-07-30 22:03:00,68.0,60.9,30.02,North,360,0.0,0.0,78,0.00,,,0.00,Wunderground v.1.15,2013-07-31 02:03:00,
2013-07-30 22:08:00,67.7,60.6,30.02,North,360,0.0,0.0,78,0.00,,,0.00,Wunderground v.1.15,2013-07-31 02:08:00,
2013-07-30 22:13:00,67.4,60.3,30.02,North,360,0.0,0.0,78,0.00,,,0.00,Wunderground v.1.15,2013-07-31 02:13:00,
2013-07-30 22:18:00,67.1,60.4,30.02,North,360,0.0,0.0,79,0.00,,,0.00,Wunderground v.1.15,2013-07-31 02:18:00,
2013-07-30 22:23:00,67.0,60.3,30.02,North,360,0.0,0.0,79,0.00,,,0.00,Wunderground v.1.15,2013-07-31 02:23:00,
2013-07-30 22:28:00,66.6,60.2,30.03,North,360,0.0,0.0,80,0.00,,,0.00,Wunderground v.1.15,2013-07-31 02:28:00,
2013-07-30 22:33:00,66.4,60.4,30.02,North,360,0.0,0.0,81,0.00,,,0.00,Wunderground v.1.15,2013-07-31 02:33:00,
2013-07-30 22:39:00,66.4,60.7,30.03,North,359,0.0,0.0,82,0.00,,,0.00,Wunderground v.1.15,2013-07-31 02:39:00,
2013-07-30 22:44:00,66.3,60.6,30.03,North,360,0.0,0.0,82,0.00,,,0.00,Wunderground v.1.15,2013-07-31 02:44:00,
2013-07-30 22:49:00,66.3,61.0,30.03,North,360,0.0,0.0,83,0.00,,,0.00,Wunderground v.1.15,2013-07-31 02:49:00,
2013-07-30 22:54:00,65.9,60.2,30.03,North,360,0.0,0.0,82,0.00,,,0.00,Wunderground v.1.15,2013-07-31 02:54:00,
2013-07-30 22:59:00,65.4,60.1,30.02,North,360,0.0,0.0,83,0.00,,,0.00,Wunderground v.1.15,2013-07-31 02:59:00,
2013-07-30 23:04:00,65.1,60.1,30.02,North,360,0.0,0.0,84,0.00,,,0.00,Wunderground v.1.15,2013-07-31 03:04:00,
2013-07-30 23:09:00,64.7,60.1,30.02,North,360,0.0,0.0,85,0.00,,,0.00,Wunderground v.1.15,2013-07-31 03:09:00,
2013-07-30 23:14:00,64.6,60.3,30.02,North,360,0.0,0.0,86,0.00,,,0.00,Wunderground v.1.15,2013-07-31 03:14:00,
2013-07-30 23:19:00,64.7,60.4,30.02,North,360,0.0,0.0,86,0.00,,,0.00,Wunderground v.1.15,2013-07-31 03:19:00,
2013-07-30 23:24:00,64.8,60.2,30.03,North,360,0.0,0.0,85,0.00,,,0.00,Wunderground v.1.15,2013-07-31 03:24:00,
2013-07-30 23:29:00,64.6,60.0,30.02,North,359,0.0,0.0,85,0.00,,,0.00,Wunderground v.1.15,2013-07-31 03:29:00,
2013-07-30 23:34:00,64.4,59.8,30.02,North,360,0.0,0.0,85,0.00,,,0.00,Wunderground v.1.15,2013-07-31 03:34:00,
2013-07-30 23:39:00,64.0,59.7,30.02,North,360,0.0,0.0,86,0.00,,,0.00,Wunderground v.1.15,2013-07-31 03:39:00,
2013-07-30 23:44:00,63.8,60.2,30.03,North,360,0.0,0.0,88,0.00,,,0.00,Wunderground v.1.15,2013-07-31 03:44:00,
2013-07-30 23:49:00,63.7,60.1,30.03,North,359,0.0,0.0,88,0.00,,,0.00,Wunderground v.1.15,2013-07-31 03:49:00,
2013-07-30 23:55:00,63.5,59.9,30.03,North,360,0.0,0.0,88,0.00,,,0.00,Wunderground v.1.15,2013-07-31 03:55:00,